CST,Max TemperatureF,Mean TemperatureF,Min TemperatureF,Max Dew PointF,MeanDew PointF,Min DewpointF,Max Humidity, Mean Humidity, Min Humidity, Max Sea Level PressureIn, Mean Sea Level PressureIn, Min Sea Level PressureIn, Max VisibilityMiles, Mean VisibilityMiles, Min VisibilityMiles, Max Wind SpeedMPH, Mean Wind SpeedMPH, Max Gust SpeedMPH,PrecipitationIn, CloudCover, Events, WindDirDegrees
2013-11-1,46,43,40,46,43,41,100,100,95,29.75,29.57,29.38,10,10,10,23,15,30,0.00,7,,265
2013-11-2,48,41,36,40,35,30,100,83,56,30.14,29.95,29.75,10,10,10,10,7,20,0.00,6,,319
2013-11-3,50,40,31,42,33,30,100,76,48,30.27,30.20,30.13,10,10,10,16,7,21,0.00,0,,134
2013-11-4,53,46,40,48,39,34,100,74,59,30.19,30.10,30.02,10,10,10,23,14,31,0.00,4,,173
2013-11-5,52,49,46,53,50,47,100,99,92,30.23,30.09,29.85,10,7,2,24,8,33,0.21,8,Rain,159
2013-11-6,54,43,31,55,38,23,100,85,54,30.17,29.94,29.70,10,9,3,21,16,30,0.18,5,Rain,277
2013-11-7,40,34,27,34,30,25,100,90,67,30.22,30.19,30.16,10,10,10,16,11,20,0.00,2,,258
2013-11-8,46,36,25,34,30,25,100,78,52,30.27,30.11,29.78,10,10,5,28,10,41,0.00,1,Rain,190
2013-11-9,52,44,35,39,34,22,75,64,45,30.11,29.90,29.77,10,10,10,30,22,40,0.00,3,,253
2013-11-10,46,39,32,32,29,26,98,69,49,30.32,30.23,30.11,10,10,10,16,12,20,0.00,4,,251
2013-11-11,43,31,19,37,26,14,100,77,63,30.54,30.25,30.05,10,8,1,21,12,25,0.01,5,Rain-Snow,319
2013-11-12,29,22,15,18,14,12,96,74,54,30.70,30.62,30.54,10,10,10,15,9,20,0.00,0,,287
2013-11-13,40,28,16,20,16,13,95,62,37,30.53,30.30,30.07,10,10,10,26,15,33,0.00,0,,213
2013-11-14,46,36,27,28,24,18,75,61,47,30.06,29.94,29.88,10,10,10,21,14,28,0.00,1,,210
2013-11-15,53,43,33,38,31,27,99,66,44,29.93,29.89,29.85,10,10,10,14,10,,0.00,2,,198
2013-11-16,56,46,37,57,49,36,100,100,96,29.85,29.64,29.47,10,6,0,31,17,41,0.07,7,Fog-Rain-Thunderstorm,175
2013-11-17,61,50,39,62,50,37,100,99,92,29.70,29.40,29.14,10,8,0,31,14,50,0.57,7,Fog-Rain-Thunderstorm,249
2013-11-18,39,33,27,26,24,22,94,67,52,30.24,30.12,29.99,10,10,10,25,17,37,0.00,1,,290
2013-11-19,40,32,23,32,26,21,100,83,55,30.32,30.26,30.20,10,10,10,14,6,,0.00,0,,129
2013-11-20,38,34,30,36,32,28,100,93,70,30.21,30.13,30.05,10,8,1,21,12,28,0.07,6,Rain-Snow,145
2013-11-21,42,39,36,42,39,36,100,100,99,30.24,30.14,30.07,7,4,0,9,4,,0.08,8,Fog,356
2013-11-22,37,30,22,38,26,14,100,83,51,30.47,30.40,30.24,10,9,4,15,11,23,0.00,4,Rain-Snow,314
2013-11-23,22,16,10,15,6,2,81,62,45,30.70,30.57,30.41,10,10,10,21,12,29,0.00,2,,319
2013-11-24,26,16,7,10,5,0,94,61,33,30.66,30.51,30.24,10,10,10,26,10,32,0.00,0,,232
2013-11-25,30,24,19,30,23,10,100,90,56,30.23,30.08,30.01,10,8,0,25,19,32,0.02,7,Snow,222
2013-11-26,31,21,11,31,18,1,100,74,56,30.19,30.07,30.00,10,10,3,17,9,25,0.00,6,Snow,302
2013-11-27,25,16,7,13,7,0,79,66,50,30.25,30.20,30.16,10,10,10,15,8,21,0.00,2,,287
2013-11-28,28,23,18,15,13,10,73,66,56,30.47,30.24,30.10,10,10,10,15,9,,0.00,4,,249
2013-11-29,32,24,17,22,17,12,95,71,55,30.57,30.47,30.31,10,10,10,14,5,,0.00,0,,145
2013-11-30,44,36,27,33,28,22,99,79,62,30.30,30.11,30.01,10,10,10,16,13,22,0.00,0,,219